Regional Weather Roundup
Issued by NWS

Home | Current Version | Previous Version | Text Only | Print | Product List | Glossary Off
Versions: 1 2 3 4 5 6 7 8 9 10 11 12 13 14 15 16 17 18 19 20 21 22 23 24 25 26 27 28 29 30 31 32 33 34 35 36 37 38 39 40 41 42 43 44 45 46 47 48 49 50

000
ASUS43 KIND 250259
RWRIN

WEATHER ROUNDUP FOR INDIANA
NATIONAL WEATHER SERVICE INDIANAPOLIS IN
1100 PM EDT TUE APR 24 2018

NOTE: "FAIR" INDICATES FEW OR NO CLOUDS BELOW 12,000 FEET WITH NO
SIGNIFICANT WEATHER AND/OR OBSTRUCTIONS TO VISIBILITY.

* - STATION DOES NOT REPORT WEATHER SUCH AS PRECIPITATION OR FOG.

+ - STATION NOT QUALITY CONTROLLED BY THE NATIONAL WEATHER SERVICE.
    USE DATA WITH CAUTION...ESPECIALLY DEWPOINT AND RELATIVE
    HUMIDITY OBSERVATIONS.

INZ001>003-010>013-019-020-250400-
NORTHWEST INDIANA

CITY           SKY/WX    TMP DP  RH WIND       PRES   REMARKS
GARY /AIRPORT/ PTCLDY    45  43  93 CALM      30.02R
KNOX *+        CLOUDY    52  48  87 N6        29.99R
MONTICELLO +   CLOUDY    55  49  78 N7        29.98R
RENSSELAER +   MOCLDY    52  45  76 NW5       29.99F

$$

LMZ046-743>745-250400-
SOUTHERN LAKE MICHIGAN

STATION/POSITION TIME  TEMP    WIND        PRES    WAVE
                       AIR SEA DIR/SP/G            HT
                 (UTC) (F)     (DEG/KT/KT) (MB)    (FT)
BURNS HARBOR     0240   43        CALM     1016.6F
MICHIGAN CITY    0230   44     290/  7/  8   N/A

$$

INZ004-005-014>016-021>024-250400-
NORTH CENTRAL INDIANA

CITY           SKY/WX    TMP DP  RH WIND       PRES   REMARKS
GOSHEN         CLOUDY    53  51  93 E5        29.97S FOG
ROCHESTER +    MOCLDY    55  52  88 N3        29.98S
SOUTH BEND     CLOUDY    53  48  83 N8        30.00R
WARSAW +       CLOUDY    54  50  87 NE5       29.97S

$$

INZ006>009-017-018-025>027-250400-
NORTHEAST INDIANA

CITY           SKY/WX    TMP DP  RH WIND       PRES   REMARKS
ANGOLA *+      CLOUDY    52  50  93 NE3       29.96F
FORT WAYNE     CLOUDY    53  51  93 N6        29.96S

$$

INZ028-029-035-036-043>045-051>053-250400-
WEST CENTRAL INDIANA

CITY           SKY/WX    TMP DP  RH WIND       PRES   REMARKS
GREENCASTLE +  CLOUDY    54  50  87 CALM      29.98S
LAFAYETTE      CLOUDY    56  51  84 N7        29.98R
TERRE HAUTE    CLOUDY    56  52  86 CALM      29.98R

$$

INZ030>032-037>040-046>048-054>057-064-065-250400-
CENTRAL INDIANA

CITY           SKY/WX    TMP DP  RH WIND       PRES   REMARKS
GREENWOOD *+   CLOUDY    53  51  94 N3        29.96S
INDIANAPOLIS   CLOUDY    54  52  93 N6        29.95F
-EAGLE CREEK   CLOUDY    54  51  90 N5        29.95S
KOKOMO +       CLOUDY    53  51  93 N7        29.96F
MT COMFORT *+  CLOUDY    52  52 100 N6        29.96S
SHELBYVILLE    CLOUDY    54  51  90 N7        29.94S
ZIONSVILLE +   CLOUDY    52  51  97 N6        29.96S

$$

INZ033-034-041-042-049-050-058-059-250400-
EAST CENTRAL INDIANA

CITY           SKY/WX    TMP DP  RH WIND       PRES   REMARKS
MUNCIE         CLOUDY    55  52  89 N9        29.94S
RICHMOND +     CLOUDY    50  50 100 N5        29.93F

$$

INZ060-061-067>069-081>083-085>088-250400-
SOUTHWEST INDIANA

CITY           SKY/WX    TMP DP  RH WIND       PRES   REMARKS
EVANSVILLE     CLOUDY    56  56 100 NW6       29.99S
HUNTINGBURG +  CLOUDY    55  53  93 NW5       29.97S

$$

INZ062-063-066-070>080-084-089>092-250400-
SOUTH CENTRAL AND SOUTHEAST INDIANA

CITY           SKY/WX    TMP DP  RH WIND       PRES   REMARKS
BLOOMINGTON    CLOUDY    54  53  97 CALM      29.96S
FRENCH LICK *+ CLOUDY    54 N/A N/A CALM      29.97R
SEYMOUR +      CLOUDY    55  55 100 NW6       29.95R

$$





USA.gov is the U.S. government's official web portal to all federal, state and local government web resources and services.